SCP
0 0 0 0 0 0 0 0 0 0 0 0 0 0 0 0 0 0 0 0 0 0 0 0 0 0 0 0 0 0 0 0 0 0 0 0 0 0 0 0 0 0 0 0
0 0 0 0 0 0 0 0 0 0 0 0 0 0 0 0 0 0 0 0 0 0 0 0 0 0 0 0 0 0 0 0 0 0 0 0 0 0 0 0 0 0 0 0
0 0 0 0 0 0 0 0 0 0 0 0 0 0 0 0 0 0 0 0 0 0 0 0 0 0 0 0 0 0 0 0 0 0 0 0 0 0 0 0 0 0 0 0
0 0 0 0 0 0 0 0 0 0 0 0 0 0 0 0 0 0 0 0 0 0 0 0 0 0 0 0 0 0 0 0 0 0 0 0 0 0 0 0 0 0 0 0
0 0 0 0 0 0 0 0 0 0 0 0 0 0 0 0 0 0 0 0 0 0 0 0 0 0 0 0 0 0 0 0 0 0 0 0 0 0 0 0 0 0 0 0
0 0 0 0 0 0 0 0 0 0 0 0 0 0 0 0 0 0 0 0 0 0 0 0 0 0 0 0 0 0 0 0 0 0 0 0 0 0 0 0 0 0 0 0
0 0 0 0 0 0 0 0 0 0 0 0 0 0 0 0 0 0 0 0 0 0 0 0 0 0 0 0 0 0 0 0 0 0 0 0 0 0 0 0 0 0 0 0
0 0 0 0 0 0 0 0 0 0 0 0 0 0 0 0 0 0 0 0 0 0 0 0 0 0 0 0 0 0 0 0 0 0 0 0 0 0 0 0 0 0 0 0
0 0 0 0 0 0 0 0 0 0 0 0 0 0 0 0 0 0 0 0 0 0 0 0 0 0 0 0 0 0 0 0 0 0 0 0 0 0 0 0 0 0 0 0
0 0 0 0 0 0 0 0 0 0 0 0 0 0 0 0 0 0 0 0 0 0 0 0 0 0 0 0 0 0 0 0 0 0 0 0 0 0 0 0 0 0 0 0
0 0 0 0 0 0 0 0 0 0 0 0 0 0 0 0 0 0 0 0 0 0 0 0 0 0 0 0 0 0 0 0 0 0 0 0 0 0 0 0 0 0 0 0
0 0 0 0 0 0 0 0 0 0 0 0 0 0 0 0 0 0 0 0 0 0 0 0 0 0 0 0 0 0 0 0 0 0 0 0 0 0 0 0 0 0 0 0
0 0 0 0 0 0 0 0 0 0 0 0 0 0 0 0 0 0 0 0 0 0 0 0 0 0 0 0 0 0 0 0 0 0 0 0 0 0 0 0 0 0 0 0
0 0 0 0 0 0 0 0 0 0 0 0 0 0 0 0 0 0 0 0 0 0 0 0 0 0 0 0 0 0 0 0 0 0 0 0 0 0 0 0 0 0 0 0
0 0 0 0 0 0 0 0 0 0 0 0 0 0 0 0 0 0 0 0 0 0 0 0 0 0 0 0 0 0 0 0 0 0 0 0 0 0 0 0 0 0 0 0
0 0 0 0 0 0 0 0 0 0 0 0 0 0 0 0 0 0 0 0 0 0 0 0 0 0 0 0 0 0 0 0 0 0 0 0 0 0 0 0 0 0 0 0
0 0 0 0 0 0 0 0 0 0 0 0 0 0 0 0 0 0 0 0 0 0 0 0 0 0 0 0 0 0 0 0 0 0 0 0 0 0 0 0 0 0 0 0
0 0 0 0 0 0 0 0 0 0 0 0 0 0 0 0 0 0 0 0 0 0 0 0 0 0 0 0 0 0 0 0 0 0 0 0 0 0 0 0 0 0 0 0
0 0 0 0 0 0 0 0 0 0 0 0 0 0 0 0 0 0 0 0 0 0 0 0 0 0 0 0 0 0 0 0 0 0 0 0 0 0 0 0 0 0 0 0
0 0 0 0 0 0 0 0 0 0 0 0 0 0 0 0 0 0 0 0 0 0 0 0 0 0 0 0 0 0 0 0 0 0 0 0 0 0 0 0 0 0 0 0
0 0 0 0 0 0 0 0 0 0 0 0 0 0 0 0 0 0 0 0 0 0 0 0 0 0 0 0 0 0 0 0 0 0 0 0 0 0 0 0 0 0 0 0
0 0 0 0 0 0 0 0 0 0 0 0 0 0 0 0 0 0 0 0 0 0 0 0 0 0 0 0 0 0 0 0 0 0 0 0 0 0 0 0 0 0 0 0
0 0 0 0 0 0 0 0 0 0 0 0 0 0 0 0 0 0 0 0 0 0 0 0 0 0 0 0 0 0 0 0 0 0 0 0 0 0 0 0 0 0 0 0
0 0 0 0 0 0 0 0 0 0 0 0 0 0 0 0 0 0 0 0 0 0 0 0 0 0 0 0 0 0 0 0 0 0 0 0 0 0 0 0 0 0 0 0
0 0 0 0 0 0 0 0 0 0 0 0 0 0 0 0 0 0 0 0 0 0 0 0 0 0 0 0 0 0 0 0 0 0 0 0 0 0 0 0 0 0 0 0
0 0 0 0 0 0 0 0 0 0 0 0 0 0 0 0 0 0 0 0 0 0 0 0 0 0 0 0 0 0 0 0 0 0 0 0 0 0 0 0 0 0 0 0
0 0 0 0 0 0 0 0 0 0 0 0 0 0 0 0 0 0 0 0 0 0 0 0 0 0 0 0 0 0 0 0 0 0 0 0 0 0 0 0 0 0 0 0
Wind_Speed
5 3 3 5 6 6 6 5 4 2 1 0 4 5 5 6 8 9 9 9 9 8 8 8 8 7 7 7 7 6 6 5 4 4 3 3 3 2 2 1 1 1 2 2
6 5 5 6 6 7 7 6 5 3 1 1 4 5 5 6 8 8 8 9 9 9 9 9 9 8 7 7 7 7 6 5 4 4 4 3 3 3 2 2 1 1 2 2
5 6 7 7 7 7 6 6 5 3 1 2 3 4 4 5 6 8 8 8 9 9 8 8 9 8 8 8 7 7 7 6 5 4 4 4 3 3 3 3 2 1 1 2
5 6 7 3 2 3 4 4 3 2 1 2 3 5 4 4 5 6 7 7 7 7 8 8 8 8 8 7 7 7 6 6 5 5 4 4 4 3 3 3 2 2 2 2
5 6 6 4 4 4 3 3 3 3 3 3 4 5 4 4 5 5 5 6 5 6 7 8 8 8 8 8 7 6 6 6 6 5 5 5 4 4 3 3 2 3 2 3
6 7 6 2 3 3 2 3 2 2 3 4 4 3 3 5 6 5 5 5 5 4 5 6 6 7 8 7 6 6 6 5 5 5 5 5 5 4 3 3 3 3 2 3
8 7 5 1 4 4 3 1 3 2 2 3 3 2 5 7 6 5 5 5 5 5 4 4 5 7 7 6 6 6 6 5 5 5 5 5 4 3 3 3 3 3 3 3
8 8 4 2 4 3 1 2 2 2 2 2 4 5 6 7 6 6 5 6 5 5 4 4 4 5 6 5 5 5 5 5 5 5 5 5 4 4 3 3 3 3 2 2
4 2 1 1 1 0 1 1 1 2 3 4 5 5 6 6 6 6 5 5 5 5 5 4 4 4 5 4 5 6 6 5 5 5 4 4 4 4 3 3 3 2 2 2
5 4 4 3 2 1 1 1 2 2 2 3 4 5 6 6 6 6 5 5 5 5 5 4 4 4 4 4 4 5 6 5 4 5 4 3 3 3 3 2 2 2 2 2
6 4 3 4 3 2 1 1 1 2 2 2 3 5 6 6 6 5 5 5 5 5 4 4 4 4 4 4 5 4 5 5 4 4 4 3 2 2 2 2 3 3 2 2
4 3 3 2 3 3 2 2 1 2 2 2 3 4 5 6 6 5 6 5 5 5 4 4 4 4 3 4 4 4 4 4 3 3 3 3 3 2 2 1 2 3 3 3
4 2 1 0 2 3 2 2 1 2 2 3 3 4 5 5 6 6 6 5 5 5 5 4 4 4 3 3 3 3 3 3 3 3 3 3 3 3 2 1 2 1 2 2
2 1 2 1 1 1 2 2 2 3 3 3 3 4 5 6 6 6 6 5 5 5 5 5 5 4 3 3 2 2 2 3 3 3 3 3 3 3 3 3 2 1 1 2
4 3 3 1 2 2 2 3 3 3 4 4 4 4 5 6 6 6 5 5 6 5 5 5 5 4 3 3 3 2 2 2 2 2 2 2 3 3 2 3 2 2 1 1
4 3 3 3 4 4 4 4 4 4 4 4 4 4 5 6 5 5 5 5 6 5 5 5 4 3 3 3 3 2 2 3 3 2 2 2 2 2 2 2 2 2 2 2
4 5 4 4 4 4 4 4 4 4 5 5 5 5 5 6 6 6 5 5 4 4 5 5 4 4 3 3 3 2 2 2 3 2 1 2 1 1 2 1 1 1 1 2
5 5 5 5 5 4 4 4 3 4 5 6 6 6 5 5 6 6 5 5 4 4 4 4 4 3 3 3 3 2 2 2 1 1 1 1 1 1 1 1 2 1 1 1
6 5 5 5 5 4 3 3 3 4 5 5 6 6 5 4 5 5 5 5 5 4 3 4 4 3 3 3 3 2 2 2 2 1 1 2 1 1 1 1 1 1 1 1
4 4 3 3 4 4 3 4 4 4 4 5 6 6 5 5 5 5 5 4 4 3 4 4 3 2 3 3 3 1 2 2 2 2 1 1 1 1 1 1 1 1 1 1
3 3 2 2 3 3 3 4 4 5 4 5 5 6 5 5 5 5 5 4 4 5 4 4 2 2 3 2 2 1 1 1 1 1 1 1 1 0 0 0 0 0 0 0
3 3 3 3 3 3 3 4 4 5 5 5 5 5 5 5 5 4 4 4 4 6 4 2 3 4 4 2 1 1 1 1 1 1 1 1 1 0 0 0 0 1 1 1
3 3 3 4 5 4 4 4 5 5 5 5 5 6 6 5 4 4 4 3 4 6 4 3 5 5 4 2 1 1 2 2 2 2 2 1 1 1 1 1 1 1 1 1
3 3 3 3 4 4 5 5 5 5 5 5 5 5 6 5 4 3 4 6 6 6 4 5 6 5 3 2 2 2 2 2 2 2 2 1 1 1 1 1 1 1 1 2
3 3 3 4 4 4 5 6 6 5 5 5 6 5 4 4 4 4 5 5 7 6 4 5 6 5 2 2 2 2 2 2 2 2 2 2 2 2 2 2 2 2 2 2
3 3 3 3 3 4 4 5 5 4 5 5 5 4 4 4 5 5 5 5 6 5 4 3 3 4 2 3 3 3 3 3 2 2 2 2 2 2 2 2 2 2 2 2
3 3 3 3 4 4 4 4 4 5 5 5 5 5 5 5 5 5 5 5 4 4 3 3 3 3 3 3 3 3 3 2 2 2 2 2 2 2 2 2 2 2 2 2
Wind_Direction
266 256 231 230 230 235 246 262 275 310 81 184 134 130 136 141 143 148 154 159 161 161 163 165 170 171 167 164 163 160 161 166 172 169 161 161 156 162 172 163 151 144 122 113
261 252 239 238 230 232 237 248 259 267 282 111 121 124 133 141 150 157 162 166 165 167 167 171 174 174 167 164 166 162 164 171 170 164 159 163 158 155 157 147 147 139 135 130
263 254 247 238 228 225 230 239 250 253 241 115 128 134 135 141 152 163 166 167 168 171 172 173 176 174 168 168 167 165 165 166 165 164 162 158 155 158 163 156 145 137 135 133
260 259 255 240 187 200 224 237 248 245 192 168 143 126 126 140 152 158 160 163 167 172 171 172 174 169 167 165 166 165 164 165 164 162 161 157 161 169 169 165 170 174 175 172
258 259 262 246 199 188 215 227 224 226 202 178 150 142 142 136 137 138 143 151 159 170 168 168 169 166 164 165 166 164 164 167 169 166 163 163 169 173 170 175 183 180 186 187
248 254 258 236 147 138 221 235 190 183 178 169 165 171 155 137 130 131 133 138 145 151 153 158 159 154 157 161 162 164 163 166 164 161 162 167 171 173 170 180 191 182 192 194
245 252 255 180 136 152 217 194 137 144 156 167 169 128 123 124 123 127 129 131 134 136 131 138 144 147 154 158 167 164 158 157 154 155 161 163 167 172 170 176 183 190 200 200
232 241 233 168 170 193 88 75 120 129 132 133 112 113 119 121 124 129 131 132 132 127 122 123 130 141 150 157 159 151 148 149 155 157 162 165 164 170 169 172 182 197 204 204
227 220 161 162 159 184 14 1 54 97 112 130 135 137 129 128 130 132 133 134 133 132 132 132 134 139 144 144 142 145 146 151 156 154 152 151 156 164 169 174 178 193 200 208
233 213 195 192 201 166 69 20 48 73 100 139 150 146 136 133 134 135 137 135 136 137 139 137 134 133 137 137 138 141 148 152 152 152 151 151 149 156 159 169 180 190 195 201
245 236 208 192 179 168 157 138 95 97 119 144 149 151 148 143 141 137 130 131 138 140 138 140 136 130 130 137 146 153 152 151 153 151 150 145 129 129 158 168 178 182 195 190
252 250 251 205 171 176 172 169 159 141 138 144 151 151 149 144 136 133 134 134 131 126 129 134 130 126 125 136 152 156 156 156 155 150 147 144 139 117 73 116 135 158 166 166
274 312 320 126 141 158 173 173 155 144 143 144 147 143 143 133 131 131 134 136 137 138 140 136 130 131 131 133 139 151 153 150 145 149 154 156 157 159 157 70 63 97 128 149
269 261 263 208 143 150 159 151 130 124 123 125 127 127 127 126 129 134 139 138 134 133 132 128 123 122 123 129 135 143 139 143 144 150 154 162 170 174 173 171 173 200 235 211
252 247 244 214 182 197 174 159 155 150 140 128 122 127 132 133 135 136 131 129 129 133 134 128 123 122 123 127 126 122 114 119 122 129 148 165 170 170 171 174 172 175 167 206
246 242 234 218 207 205 195 187 177 166 153 143 140 140 140 136 133 132 131 135 140 144 138 130 127 125 125 124 120 116 115 131 136 142 158 166 166 165 172 178 180 178 179 179
230 224 224 224 213 204 202 195 180 168 158 149 142 139 139 137 136 136 136 138 139 133 130 129 127 125 127 130 128 125 123 134 145 154 165 159 153 160 167 165 174 182 187 173
238 229 220 219 216 209 201 188 177 163 152 144 139 143 150 153 152 147 142 138 131 121 114 112 112 124 132 126 121 121 130 144 155 161 149 143 144 153 170 179 183 190 185 169
245 238 222 213 203 197 193 175 165 157 148 145 147 149 150 149 145 140 138 137 133 128 117 106 113 133 131 121 116 126 144 154 157 155 152 154 167 184 185 183 180 178 160 151
243 237 217 201 186 180 175 163 154 150 148 149 148 144 145 147 142 139 139 131 124 121 115 112 131 135 124 109 100 130 148 160 165 159 154 156 171 188 173 159 163 164 163 189
214 209 191 180 165 166 169 163 156 152 148 151 153 151 151 148 142 140 138 130 117 106 111 119 123 108 100 94 96 127 141 142 143 141 135 139 151 142 106 84 70 66 44 328
202 200 192 177 167 167 162 159 149 143 141 143 142 140 139 137 133 129 121 120 120 117 118 123 114 101 94 88 119 123 125 122 110 98 94 96 106 114 104 66 62 47 28 18
198 197 186 177 172 166 160 156 146 143 143 143 143 141 136 131 133 133 126 116 117 117 116 113 107 105 100 104 116 108 104 97 90 85 80 74 69 67 59 43 44 42 26 25
179 174 170 159 152 149 144 132 125 126 124 122 121 123 125 120 113 104 109 118 118 120 116 119 116 109 105 114 114 105 97 90 87 82 78 73 64 58 56 54 48 41 33 33
144 142 140 142 145 138 130 124 119 116 115 113 110 106 108 112 117 115 114 116 117 115 115 120 117 116 115 107 102 94 89 86 83 81 81 74 66 61 57 55 53 45 41 43
116 116 115 116 112 112 119 121 122 121 120 116 109 104 102 102 104 107 110 115 116 113 110 114 120 123 108 92 87 85 86 91 85 79 80 79 76 71 66 60 50 49 49 50
107 102 101 102 98 100 107 113 118 119 120 121 118 112 108 107 108 111 112 115 115 113 108 104 100 98 91 87 84 81 80 78 80 80 80 78 75 70 64 55 53 52 50 47